TimeBST,TemperatureF,Dew PointF,Humidity,Sea Level PressureIn,VisibilityMPH,Wind Direction,Wind SpeedMPH,Gust SpeedMPH,PrecipitationIn,Events,Conditions,WindDirDegrees,DateUTC
12:50 AM,33,30,86,29.48,37,SW,5.8,,,,,230,2012-10-16 23:50:00
12:50 AM,33.8,30.2,87,29.47,6.2,SW,5.8,-,N/A,,Unknown,230,2012-10-16 23:50:00
1:50 AM,33.8,30.2,87,29.47,6.2,WSW,4.6,-,N/A,,Unknown,240,2012-10-17 00:50:00
2:50 AM,32.0,28.4,87,29.47,6.2,WSW,3.5,-,N/A,,Unknown,250,2012-10-17 01:50:00
3:50 AM,30,29,92,29.49,37,SW,2.3,,,,,230,2012-10-17 02:50:00
3:50 AM,30.2,28.4,93,29.47,6.2,SW,2.3,-,N/A,,Unknown,230,2012-10-17 02:50:00
4:50 AM,30.2,28.4,93,29.47,6.2,WSW,3.5,-,N/A,,Unknown,240,2012-10-17 03:50:00
5:50 AM,26.6,26.6,100,29.47,6.2,SE,1.2,-,N/A,,Unknown,130,2012-10-17 04:50:00
6:50 AM,26,24,88,29.47,25,SSE,1.2,,,Fog,Fog,160,2012-10-17 05:50:00
6:50 AM,24.8,24.8,100,29.44,6.2,SSE,1.2,-,N/A,,Unknown,160,2012-10-17 05:50:00
7:50 AM,24.8,24.8,100,29.44,6.2,ESE,2.3,-,N/A,,Unknown,120,2012-10-17 06:50:00
8:50 AM,26.6,24.8,93,29.44,6.2,South,1.2,-,N/A,,Unknown,170,2012-10-17 07:50:00
9:50 AM,30,29,96,29.47,25,Calm,Calm,,,,Partly Cloudy,,2012-10-17 08:50:00
9:50 AM,30.2,30.2,100,29.44,-9999.0,Calm,Calm,-,N/A,,Clear,0,2012-10-17 08:50:00
10:50 AM,32.0,32.0,100,29.44,-9999.0,East,1.2,-,N/A,,Clear,80,2012-10-17 09:50:00
11:50 AM,39.2,35.6,87,29.44,-9999.0,ESE,5.8,-,N/A,,Clear,120,2012-10-17 10:50:00
12:50 PM,41,37,80,29.44,34,East,6.9,,,,Mostly Cloudy,80,2012-10-17 11:50:00
12:50 PM,41.0,37.4,87,29.44,6.2,East,6.9,-,N/A,,Mostly Cloudy,80,2012-10-17 11:50:00
2:50 PM,42.8,39.2,87,29.39,6.2,East,3.5,-,N/A,,Overcast,80,2012-10-17 13:50:00
3:50 PM,43,40,85,29.41,25,East,2.3,,,,Overcast,100,2012-10-17 14:50:00
3:50 PM,42.8,39.2,87,29.39,6.2,East,2.3,-,N/A,,Overcast,100,2012-10-17 14:50:00
4:50 PM,44.6,41.0,87,29.39,6.2,South,1.2,-,N/A,,Mostly Cloudy,180,2012-10-17 15:50:00
5:50 PM,42.8,41.0,93,29.39,6.2,ENE,5.8,-,N/A,Rain,Rain,70,2012-10-17 16:50:00
6:50 PM,43,41,90,29.42,7,East,6.9,,,Rain,Rain,80,2012-10-17 17:50:00
6:50 PM,42.8,41.0,93,29.42,6.2,East,6.9,-,N/A,Rain,Rain,80,2012-10-17 17:50:00
7:50 PM,42.8,41.0,93,29.42,6.2,SE,5.8,-,N/A,,Mostly Cloudy,130,2012-10-17 18:50:00
8:50 PM,41.0,39.2,93,29.42,6.2,ESE,3.5,-,N/A,,Overcast,110,2012-10-17 19:50:00
9:50 PM,41,39,92,29.44,37,East,3.5,,,,Overcast,90,2012-10-17 20:50:00
9:50 PM,41.0,39.2,93,29.42,6.2,East,3.5,-,N/A,,Overcast,90,2012-10-17 20:50:00
10:50 PM,41.0,39.2,93,29.44,6.2,East,3.5,-,N/A,,Overcast,100,2012-10-17 21:50:00
11:50 PM,41.0,39.2,93,29.44,6.2,ESE,1.2,-,N/A,Rain,Light Rain Showers,110,2012-10-17 22:50:00